Regional Weather Roundup
Issued by NWS

Home | Current Version | Previous Version | Graphics & Text | Print | Product List | Glossary On
Versions: 1 2 3 4 5 6 7 8 9 10 11 12 13 14 15 16 17 18 19 20 21 22 23 24 25 26 27 28 29 30 31 32 33 34 35 36 37 38 39 40 41 42 43 44 45 46 47 48 49 50
000
ASUS43 KLMK 241810
RWRKY
KENTUCKY REGIONAL WEATHER ROUNDUP
NATIONAL WEATHER SERVICE LOUISVILLE KY
100 PM EST FRI FEB 24 2017

NOTE "FAIR" INDICATES FEW OR NO CLOUDS BELOW 12,000 FEET
WITH NO SIGNIFICANT WEATHER AND/OR OBSTRUCTIONS TO VISIBILITY.

KYZ001>023-026-027-061>063-070>075-241900-
WESTERN AND SOUTH CENTRAL KENTUCKY

CITY           SKY/WX    TMP DP  RH WIND       PRES   REMARKS
PADUCAH        MOSUNNY   74  51  44 SW20G29   29.59F
HENDERSON      SUNNY     75  54  46 S22G30    29.56F
OWENSBORO      SUNNY     77  53  43 SW26G32   29.58F
HOPKINSVILLE   SUNNY     78  50  36 S23G36    29.62F
BOWLING GREEN  MOSUNNY   78  56  46 S25G32    29.66F
GLASGOW        MOSUNNY   76  54  46 S24G32    29.68F
$$

KYZ024-025-028>034-038-045-046-053-241900-
NORTH CENTRAL KENTUCKY

CITY           SKY/WX    TMP DP  RH WIND       PRES   REMARKS
LOUISVILLE/SDF CLOUDY    78  51  38 S26G37    29.61F
LOUISVILLE/LOU MOSUNNY   78  53  41 S15G25    29.61F
FORT KNOX      MOSUNNY   76  54  46 S25G37    29.62F
$$

KYZ035>037-039>044-047>052-055>060-089>105-241900-
NORTHEAST KENTUCKY

CITY           SKY/WX    TMP DP  RH WIND       PRES   REMARKS
LEXINGTON      CLOUDY    76  52  43 S21       29.68F
COVINGTON      PTSUNNY   75  55  49 S20G36    29.61F
FRANKFORT      MOSUNNY   76  52  43 S23G32    29.64F
$$

KYZ054-064>069-076>088-106>120-241900-
SOUTHEAST KENTUCKY

CITY           SKY/WX    TMP DP  RH WIND       PRES   REMARKS
JACKSON        SUNNY     76  50  40 VRB6      29.76F
LONDON         SUNNY     74  49  41 SW23G32   29.76F
SOMERSET       CLOUDY    72  52  49 S14G21    29.74F
MIDDLESBORO    SUNNY     72  53  51 S10G21    29.81F
MONTICELLO     PTCLDY    76  55  48 S10G23    29.75F
$$





USA.gov is the U.S. government's official web portal to all federal, state and local government web resources and services.